Temp
63 63 63 63 63 62 61 59 59 63 63 57 56 55 57 58 58 58 59 59 60 59 57 54 54 54 53 52 52 51 50 51 51 49 54 51 53 52 52 51 51 53 54
61 62 61 59 57 59 59 58 59 59 59 57 56 57 56 56 57 60 61 58 57 57 58 53 52 52 51 50 49 49 48 49 49 47 45 46 52 49 51 49 50 46 49
59 60 59 56 56 57 58 60 59 59 58 59 57 56 56 56 56 55 54 56 55 55 54 52 51 50 50 48 48 47 46 45 46 46 44 40 38 40 46 47 46 44 44
60 60 57 56 56 55 56 59 60 60 60 59 56 56 54 52 52 51 51 51 52 53 54 52 50 49 48 47 46 49 45 45 42 44 48 44 42 41 40 43 47 45 46
57 56 57 57 57 56 56 57 59 60 59 58 57 54 53 51 50 49 49 50 50 52 52 50 51 50 48 46 45 44 43 43 42 41 41 41 41 44 38 36 39 43 42
55 57 57 59 57 56 57 57 59 60 59 57 56 55 52 50 48 48 47 48 48 49 49 50 46 45 44 43 43 42 41 40 40 39 40 39 38 37 36 37 36 38 39
54 55 56 56 57 55 57 57 58 59 59 56 52 51 49 48 48 48 50 51 51 49 47 46 44 43 43 43 42 41 42 42 41 40 39 40 38 39 38 37 37 35 39
56 55 55 55 55 56 55 55 55 53 53 52 50 50 50 51 52 52 48 48 47 46 45 44 44 44 44 42 41 39 39 39 38 36 37 37 37 37 36 38 36 34 37
54 55 54 54 55 55 53 55 56 54 52 52 51 51 53 53 52 52 49 48 45 47 44 44 43 43 43 42 40 38 37 36 36 36 36 36 37 37 38 40 37 33 30
53 54 54 52 52 53 55 56 55 53 52 51 52 55 53 52 49 46 44 44 44 45 44 43 42 42 41 40 39 37 37 36 35 37 35 35 36 37 39 39 38 36 33
51 52 52 52 52 53 52 52 50 51 50 50 50 49 48 48 46 44 46 44 44 45 46 44 43 42 40 39 37 36 36 36 35 35 34 34 35 33 34 35 37 37 36
52 51 51 51 50 50 50 49 49 50 50 49 49 48 47 47 45 44 43 43 44 43 44 44 42 40 39 37 36 35 36 34 33 33 32 32 37 32 33 33 33 34 36
49 49 49 49 49 48 49 48 47 46 47 48 47 46 47 45 44 43 43 43 42 44 44 43 41 39 39 38 36 35 34 32 32 31 31 31 31 30 31 31 32 33 37
48 48 48 47 47 47 47 46 46 46 46 46 45 44 45 45 42 41 41 43 43 43 42 41 41 40 39 37 35 34 31 31 31 32 31 30 29 29 29 31 31 33 30
48 49 47 46 45 46 45 46 45 45 46 45 44 43 42 41 42 43 42 42 42 43 42 41 39 37 37 36 32 32 31 30 30 30 30 30 32 35 35 33 30 28 27
47 47 47 46 47 46 44 45 45 45 45 43 43 43 43 43 41 41 40 39 39 41 41 39 36 35 38 35 35 33 29 30 29 27 28 28 31 31 33 33 34 34 29
46 46 45 47 45 44 45 44 44 45 44 43 43 43 42 41 40 40 39 39 38 41 37 35 34 32 31 35 35 34 30 28 26 26 27 28 32 31 30 31 33 32 33
47 46 46 46 45 44 44 44 44 43 42 41 41 41 41 39 39 39 38 38 40 37 34 31 32 31 33 35 35 33 28 26 27 27 27 27 27 29 29 29 29 29 29
47 46 46 46 43 43 44 43 42 42 41 41 40 40 40 39 38 38 37 37 36 33 32 32 31 29 29 34 34 31 25 25 25 28 28 28 27 29 32 28 26 26 28
47 47 45 44 43 44 43 42 41 40 39 40 40 40 39 38 38 36 35 34 34 33 33 30 29 31 27 32 32 30 21 19 23 25 27 28 28 30 30 27 25 23 25
47 47 44 43 43 43 42 41 40 39 41 41 40 39 39 37 37 35 34 34 32 31 27 27 27 28 28 27 31 31 23 22 23 23 24 25 28 29 30 30 25 25 27
44 44 43 42 42 42 42 40 38 40 40 39 38 37 37 38 39 35 34 32 31 27 23 17 19 21 22 30 29 30 29 28 18 22 24 24 28 28 28 27 28 28 26
41 43 40 40 41 42 41 39 39 39 38 36 35 35 35 35 35 32 29 28 26 22 22 24 16 19 22 19 28 28 29 28 22 23 26 27 27 26 26 27 26 25 23
40 40 40 38 38 40 40 39 39 39 36 35 34 33 32 32 32 31 30 27 20 19 24 21 19 16 18 16 19 20 17 23 24 23 23 23 25 23 24 24 24 24 23
39 39 37 37 37 39 38 38 38 37 35 34 34 32 28 29 30 30 28 27 28 27 21 19 19 7 7 16 26 27 22 20 21 17 17 19 19 19 19 19 21 22 23
37 37 37 36 37 37 36 36 35 34 34 32 31 28 26 25 29 29 29 33 33 32 33 30 21 13 23 29 30 30 29 28 27 15 13 12 13 16 17 15 16 19 20
MSLP
1018.69 1018.43 1018.90 1019.07 1019.16 1019.63 1020.13 1020.41 1020.42 1020.23 1020.42 1021.11 1021.27 1021.44 1021.73 1021.74 1022.10 1021.87 1021.85 1021.85 1021.72 1021.60 1021.68 1021.82 1021.76 1021.63 1021.71 1021.64 1021.47 1021.17 1020.94 1020.57 1020.11 1020.04 1019.69 1019.20 1018.89 1018.83 1018.96 1018.99 1019.11 1018.87 1018.58
1019.50 1019.69 1019.95 1020.30 1020.67 1020.86 1021.11 1021.21 1021.21 1021.18 1021.35 1021.35 1021.82 1021.99 1022.15 1022.22 1022.08 1021.96 1021.99 1022.14 1022.06 1022.10 1022.04 1022.45 1022.37 1022.13 1021.99 1021.85 1021.81 1021.63 1021.47 1021.09 1020.66 1020.67 1020.46 1019.50 1018.90 1018.87 1019.14 1019.22 1019.33 1019.43 1019.10
1020.23 1020.63 1020.91 1021.31 1021.36 1021.54 1021.73 1021.68 1021.68 1021.52 1021.49 1021.66 1021.86 1022.02 1021.94 1022.11 1022.23 1022.14 1022.45 1022.44 1022.38 1022.46 1022.65 1022.64 1022.46 1022.31 1022.20 1022.29 1022.11 1021.94 1021.96 1021.89 1021.39 1021.07 1021.00 1020.49 1020.31 1020.10 1019.45 1019.23 1019.29 1019.44 1019.40
1020.60 1021.06 1021.45 1021.71 1021.81 1022.08 1021.97 1021.74 1021.63 1021.62 1021.63 1021.52 1021.67 1021.89 1022.36 1022.66 1022.78 1022.85 1023.04 1022.99 1022.73 1022.89 1022.93 1022.84 1022.72 1022.63 1022.51 1022.54 1022.44 1022.15 1022.21 1021.96 1022.02 1021.62 1021.33 1021.17 1020.98 1020.68 1019.94 1019.75 1019.62 1019.48 1019.42
1020.49 1021.22 1021.42 1021.40 1021.47 1021.68 1021.57 1021.24 1021.13 1021.26 1021.33 1021.38 1021.56 1021.98 1022.39 1022.59 1022.98 1023.24 1023.28 1023.31 1023.12 1022.86 1022.91 1023.04 1023.01 1023.04 1022.93 1022.93 1023.05 1023.02 1022.97 1022.75 1022.59 1022.50 1022.22 1021.75 1021.47 1021.38 1021.25 1019.99 1019.74 1019.98 1019.61
1020.99 1021.22 1021.38 1021.38 1021.53 1021.43 1021.33 1021.28 1021.27 1021.39 1021.55 1021.66 1021.78 1021.93 1022.46 1022.92 1023.43 1023.65 1023.70 1023.57 1023.35 1023.03 1022.93 1023.10 1023.33 1023.42 1023.49 1023.41 1023.58 1023.54 1023.44 1023.43 1023.28 1023.09 1022.96 1022.49 1022.29 1021.78 1021.46 1020.86 1020.05 1019.93 1019.34
1021.20 1021.56 1021.57 1021.48 1021.43 1021.44 1021.56 1021.62 1021.63 1021.87 1021.87 1022.08 1022.49 1022.74 1023.10 1023.31 1023.55 1023.87 1023.81 1023.50 1023.66 1023.21 1023.12 1023.24 1023.42 1023.70 1023.57 1023.32 1023.33 1023.33 1023.27 1023.19 1023.25 1023.26 1023.01 1022.58 1022.49 1022.06 1021.65 1021.18 1020.54 1019.88 1019.08
1021.34 1021.93 1022.20 1022.35 1022.60 1022.73 1022.55 1022.45 1022.84 1023.04 1023.14 1023.29 1023.50 1023.57 1023.73 1023.83 1023.81 1023.66 1023.32 1023.87 1023.49 1023.48 1022.93 1023.23 1023.16 1023.20 1023.15 1023.13 1023.19 1023.15 1023.03 1023.19 1023.23 1023.14 1022.91 1022.62 1022.38 1022.15 1021.86 1021.29 1020.88 1019.87 1019.26
1022.41 1022.71 1022.97 1022.81 1023.01 1023.08 1023.31 1023.33 1023.42 1023.62 1023.65 1023.57 1023.55 1023.37 1023.22 1023.17 1022.82 1022.93 1022.72 1023.06 1022.68 1022.71 1022.79 1022.88 1022.96 1022.82 1022.91 1023.06 1023.21 1023.26 1022.81 1022.85 1022.96 1022.82 1022.62 1022.46 1022.16 1021.88 1021.64 1021.41 1021.26 1021.10 1020.15
1022.96 1023.13 1023.32 1023.55 1023.65 1023.79 1023.80 1023.60 1023.64 1023.73 1023.77 1023.51 1023.33 1023.27 1023.22 1023.01 1022.73 1022.50 1022.59 1022.68 1022.59 1022.50 1022.39 1022.65 1022.86 1022.41 1022.57 1022.68 1023.01 1022.99 1022.48 1022.73 1022.61 1022.53 1022.50 1022.34 1022.06 1021.73 1021.35 1020.94 1020.66 1020.56 1020.17
1023.45 1023.79 1024.00 1024.12 1024.11 1024.04 1024.05 1024.20 1024.09 1023.94 1023.99 1023.47 1023.43 1023.29 1023.05 1022.83 1022.70 1022.92 1022.80 1022.94 1022.87 1023.19 1022.06 1022.29 1022.47 1022.24 1022.30 1022.34 1022.40 1022.35 1022.18 1022.40 1022.45 1022.42 1022.36 1022.23 1021.92 1021.59 1021.27 1020.84 1020.32 1019.89 1019.61
1024.07 1024.16 1024.36 1024.34 1024.33 1024.38 1024.34 1024.43 1024.44 1024.21 1023.99 1024.00 1023.82 1023.51 1023.29 1022.95 1022.78 1022.81 1022.68 1022.75 1022.70 1022.41 1022.00 1022.13 1022.36 1022.14 1022.51 1022.41 1022.08 1021.96 1021.98 1022.05 1022.15 1022.22 1022.13 1021.92 1021.56 1021.29 1020.96 1020.50 1020.01 1019.52 1018.86
1024.29 1024.41 1024.41 1024.34 1024.42 1024.54 1024.52 1024.56 1024.49 1024.39 1024.15 1023.91 1023.72 1023.56 1023.32 1023.02 1022.87 1022.64 1022.45 1022.74 1022.90 1022.88 1022.84 1021.89 1022.10 1022.04 1022.08 1022.09 1022.08 1021.93 1022.13 1022.21 1022.20 1022.11 1021.97 1021.74 1021.41 1021.00 1020.53 1020.05 1019.51 1018.95 1018.40
1024.26 1024.26 1024.22 1024.52 1024.68 1024.62 1024.54 1024.61 1024.61 1024.46 1024.19 1023.95 1023.84 1023.73 1023.32 1022.82 1022.76 1022.95 1023.08 1023.06 1023.28 1022.72 1022.42 1022.11 1021.91 1021.73 1021.90 1022.00 1022.19 1022.06 1022.10 1022.15 1022.01 1021.78 1021.62 1021.40 1021.14 1020.76 1020.18 1019.49 1018.84 1018.28 1017.89
1024.34 1024.30 1024.49 1024.62 1024.67 1024.65 1024.71 1024.72 1024.64 1024.38 1024.23 1024.22 1024.07 1023.83 1023.39 1023.17 1022.94 1022.70 1022.47 1022.35 1022.14 1021.78 1021.44 1021.83 1021.62 1021.62 1021.71 1022.00 1022.29 1022.12 1021.98 1021.89 1021.68 1021.49 1021.33 1021.08 1020.75 1020.15 1019.57 1019.26 1018.68 1018.38 1017.97
1024.40 1024.48 1024.50 1024.57 1024.60 1024.71 1024.74 1024.57 1024.43 1024.37 1024.21 1024.15 1024.05 1023.71 1023.37 1023.10 1022.87 1022.56 1022.35 1022.15 1022.13 1021.60 1021.41 1021.69 1021.55 1021.48 1021.72 1022.11 1022.00 1021.77 1021.81 1021.67 1021.50 1021.34 1021.01 1020.74 1020.30 1019.75 1019.36 1018.85 1018.37 1018.06 1017.89
1024.22 1024.26 1024.28 1024.26 1024.43 1024.44 1024.36 1024.33 1024.23 1024.05 1024.01 1024.00 1023.78 1023.38 1023.01 1022.91 1022.62 1022.38 1022.27 1022.12 1021.93 1021.63 1021.61 1021.49 1021.51 1021.80 1022.01 1021.92 1021.81 1021.81 1021.76 1021.61 1021.38 1021.10 1020.76 1020.39 1019.87 1019.40 1018.92 1018.41 1017.93 1017.58 1017.33
1023.90 1023.86 1023.92 1024.10 1024.17 1024.17 1024.10 1024.04 1023.94 1023.89 1023.68 1023.44 1023.31 1023.09 1022.86 1022.65 1022.40 1022.28 1022.10 1022.21 1021.75 1021.54 1021.55 1021.73 1021.84 1022.08 1022.05 1021.90 1021.87 1021.88 1021.81 1021.63 1021.33 1020.92 1020.47 1020.01 1019.47 1019.02 1018.52 1017.91 1017.46 1017.18 1016.90
1023.39 1023.45 1023.57 1023.72 1023.92 1024.00 1023.90 1023.77 1023.63 1023.48 1023.40 1023.17 1022.98 1022.86 1022.66 1022.39 1022.17 1022.00 1021.70 1021.55 1021.61 1021.50 1021.69 1021.93 1022.15 1022.27 1022.23 1022.13 1022.03 1021.97 1022.00 1021.65 1021.22 1020.67 1020.19 1019.65 1019.21 1018.64 1017.98 1017.53 1017.29 1016.99 1016.53
1023.22 1023.27 1023.47 1023.72 1023.94 1023.67 1023.42 1023.52 1023.55 1023.42 1023.20 1023.01 1022.78 1022.48 1022.27 1022.10 1021.83 1021.47 1021.45 1021.31 1021.39 1021.50 1021.88 1022.28 1022.41 1022.49 1022.45 1022.25 1022.11 1021.92 1021.78 1021.63 1021.06 1020.57 1019.95 1019.44 1018.92 1018.27 1017.57 1017.08 1016.91 1016.67 1016.24
1023.13 1023.43 1023.77 1024.01 1023.81 1023.70 1023.61 1023.61 1023.40 1023.21 1022.94 1022.76 1022.54 1022.31 1022.06 1021.86 1021.49 1021.26 1021.17 1021.26 1021.60 1021.91 1022.35 1022.55 1022.68 1022.67 1022.52 1022.39 1022.21 1021.92 1021.64 1021.43 1021.02 1020.48 1019.81 1019.29 1018.64 1017.92 1017.39 1016.92 1016.65 1016.26 1015.83
1023.71 1023.84 1024.01 1024.03 1023.86 1023.68 1023.55 1023.33 1023.21 1022.87 1022.75 1022.52 1022.43 1022.33 1022.08 1021.75 1021.46 1021.28 1021.16 1021.31 1021.79 1022.30 1022.71 1022.87 1022.99 1022.79 1022.67 1022.46 1022.22 1021.90 1021.52 1021.12 1020.94 1020.45 1019.83 1019.22 1018.54 1017.99 1017.45 1016.97 1016.48 1016.01 1015.68
1024.06 1024.04 1024.21 1024.14 1023.99 1023.83 1023.52 1023.18 1022.79 1022.62 1022.49 1022.40 1022.33 1022.22 1022.07 1021.81 1021.53 1021.45 1021.60 1021.85 1022.13 1022.33 1022.61 1022.78 1022.94 1023.01 1022.69 1022.43 1022.16 1021.81 1021.39 1021.04 1020.74 1020.33 1019.77 1019.28 1018.77 1018.26 1017.68 1017.24 1016.74 1016.31 1015.96
1024.22 1024.22 1024.22 1024.25 1024.13 1023.77 1023.44 1023.19 1022.83 1022.49 1022.37 1022.24 1022.18 1022.08 1022.14 1021.91 1021.61 1021.60 1021.76 1022.00 1022.15 1022.30 1022.45 1022.61 1022.81 1022.87 1022.77 1022.34 1021.92 1021.54 1021.15 1020.90 1020.67 1020.27 1019.86 1019.51 1019.05 1018.56 1018.16 1017.63 1017.11 1016.68 1016.25
1024.35 1024.31 1024.27 1024.19 1023.96 1023.63 1023.36 1023.06 1022.70 1022.33 1022.02 1022.00 1021.98 1022.08 1022.17 1022.08 1021.90 1021.89 1021.95 1022.04 1021.89 1021.93 1021.99 1022.23 1022.42 1022.61 1022.55 1022.26 1021.74 1021.38 1021.14 1020.85 1020.72 1020.38 1020.10 1019.83 1019.39 1018.94 1018.56 1018.17 1017.64 1017.12 1016.54
1024.28 1024.24 1024.17 1023.99 1023.71 1023.49 1023.19 1022.82 1022.59 1022.22 1022.24 1022.17 1022.08 1022.00 1022.08 1022.09 1022.07 1021.98 1021.85 1021.74 1021.61 1021.46 1021.45 1021.52 1021.61 1021.85 1021.88 1021.77 1021.50 1021.34 1021.20 1020.94 1020.81 1020.85 1020.69 1020.40 1020.03 1019.59 1019.18 1018.83 1018.29 1017.71 1017.16
Wind_Speed
13 16 15 14 16 13 12 8 5 5 6 4 4 3 3 1 4 4 6 6 6 6 6 5 6 5 4 4 4 3 4 4 5 4 7 3 5 4 5 4 5 7 8
17 15 16 15 11 10 8 8 7 8 5 4 2 2 1 2 3 2 5 7 7 8 7 6 5 6 4 7 6 5 4 3 3 2 2 7 8 3 3 3 4 5 4
15 14 12 9 8 8 6 7 7 7 7 6 3 2 2 1 3 4 4 6 7 7 6 5 5 5 4 4 4 5 6 3 3 5 1 4 4 3 4 4 3 4 4
12 11 9 8 8 6 6 7 7 7 6 7 4 3 2 1 1 2 2 4 6 6 6 6 6 5 4 5 4 4 2 3 3 3 3 1 2 2 8 2 8 7 8
12 9 8 8 6 5 4 4 5 4 3 4 5 4 3 2 2 3 5 5 4 3 6 6 6 6 6 7 9 7 8 4 3 3 3 2 2 1 2 11 6 6 5
8 7 6 6 5 3 4 2 1 1 4 3 4 5 2 3 5 3 3 3 2 3 6 6 6 5 5 7 5 6 7 6 5 3 4 3 3 3 2 5 11 11 5
8 7 6 4 3 2 2 3 1 4 6 5 7 7 7 7 7 2 2 5 3 3 5 5 6 4 3 5 4 4 4 4 5 5 5 2 4 3 3 4 7 7 7
7 6 4 4 6 8 11 10 10 11 12 9 8 7 6 3 1 2 1 2 4 3 4 5 4 4 3 3 3 2 2 4 4 6 5 4 4 3 3 4 6 9 10
7 8 5 10 11 13 10 9 9 7 6 5 3 3 5 5 4 5 2 4 4 4 5 4 3 3 3 3 3 2 3 2 3 5 5 4 4 4 3 4 2 3 7
7 8 8 8 7 6 4 5 4 4 2 1 3 3 4 5 5 3 6 5 4 3 4 3 2 2 1 2 3 4 3 3 4 4 5 4 3 5 5 6 6 5 4
7 7 6 6 5 4 5 4 4 2 3 4 5 5 6 6 2 2 3 2 1 4 2 1 2 1 2 3 3 4 3 2 3 3 4 5 5 4 5 5 6 6 7
7 6 5 4 3 3 5 6 5 6 6 6 7 7 7 5 3 2 3 4 6 3 1 2 3 2 4 4 4 3 4 2 1 4 5 5 7 6 6 5 8 7 9
6 5 4 4 6 6 5 5 6 7 6 7 7 7 8 7 5 6 2 1 3 7 8 4 4 5 5 5 3 3 3 2 2 3 4 5 7 9 8 8 8 6 7
5 5 6 5 3 3 5 6 6 5 5 6 7 7 8 9 2 4 4 7 5 9 8 6 6 5 4 3 2 3 2 2 3 5 5 5 6 9 10 10 10 8 5
5 5 3 1 2 5 5 5 5 6 5 6 6 6 5 4 3 5 4 3 9 8 4 6 6 3 3 2 2 2 2 4 5 4 5 5 11 18 14 8 5 5 4
2 3 3 3 3 4 3 2 4 4 3 4 4 5 4 5 6 6 6 6 8 5 2 6 5 3 2 6 7 5 3 4 4 5 5 6 12 10 16 17 18 10 5
4 5 1 3 4 4 2 1 2 3 3 2 4 4 5 5 6 6 6 7 7 2 6 4 3 4 2 10 9 7 3 4 5 6 6 7 7 13 9 13 16 13 14
5 2 2 2 4 3 1 2 3 3 3 2 4 5 6 6 6 4 3 8 5 6 3 4 4 0 3 7 5 4 4 5 6 6 7 8 10 10 13 11 7 7 7
2 3 3 4 4 4 6 5 2 4 4 4 5 5 5 6 4 6 5 6 5 1 2 3 3 4 4 7 7 7 4 5 6 8 9 10 10 15 17 10 6 7 8
3 4 3 3 4 5 4 3 4 5 5 5 6 6 6 6 7 7 6 4 1 3 4 5 5 7 4 7 8 6 1 4 6 7 9 14 14 20 20 7 5 7 9
4 5 5 1 5 6 3 4 5 6 5 5 6 6 6 6 6 5 2 2 3 5 4 4 3 4 4 4 10 14 2 4 5 7 7 7 19 16 19 15 6 9 7
7 5 5 6 6 3 3 6 6 4 3 4 5 5 6 5 4 4 2 4 5 5 2 3 1 2 2 8 10 14 13 13 2 7 7 7 17 17 16 11 15 15 5
4 4 4 4 5 6 7 7 5 5 5 4 3 3 5 5 5 4 3 3 4 3 2 2 1 1 1 2 10 11 13 12 5 5 9 14 15 16 9 15 14 8 5
4 3 4 5 6 6 6 5 6 7 6 6 4 3 4 5 5 2 2 3 2 2 2 2 2 1 2 3 4 3 4 6 5 6 5 6 8 7 7 7 8 6 5
2 3 4 5 7 6 6 6 7 7 7 5 3 2 2 3 3 3 2 1 3 4 3 3 3 3 2 3 7 8 4 2 4 4 3 4 5 6 6 7 7 7 6
3 5 6 6 6 7 9 9 5 5 5 5 3 3 1 1 2 2 1 3 7 7 7 6 5 3 5 8 10 8 11 12 9 3 2 3 3 5 6 6 7 7 8
Wind_Direction
58 60 55 54 70 63 65 45 56 87 94 58 66 44 93 186 49 61 53 27 9 8 24 19 16 6 15 358 349 309 345 344 350 358 329 309 295 320 17 36 52 35 19
73 66 64 60 57 73 65 49 51 53 75 79 44 38 31 93 116 37 30 31 40 34 46 31 18 25 16 11 3 18 333 310 340 274 265 316 317 350 15 46 42 29 15
99 88 80 76 68 65 83 94 80 70 58 64 51 22 51 12 9 14 36 34 43 44 44 33 30 21 36 21 352 2 17 323 327 29 297 337 303 325 335 350 9 17 18
104 108 101 95 113 142 140 122 124 131 139 143 125 131 130 81 237 73 62 33 38 32 21 21 26 28 21 20 346 13 13 26 2 328 7 328 188 318 313 340 328 348 341
120 125 138 142 134 115 119 150 143 131 145 146 135 136 155 172 63 64 50 16 14 26 37 33 37 41 36 35 27 16 10 7 2 5 330 311 310 326 306 307 326 314 300
112 121 130 119 123 152 160 149 113 306 212 189 189 176 168 97 85 55 32 348 324 6 51 48 56 48 47 52 41 36 29 14 5 354 339 345 305 289 270 294 312 303 285
138 144 141 139 178 231 327 333 336 320 352 12 40 55 80 97 108 67 352 298 341 14 49 63 52 45 65 60 47 41 18 351 342 320 309 277 283 285 276 279 284 285 307
154 150 118 29 44 38 33 34 46 46 54 57 51 54 63 68 74 254 235 303 176 140 112 112 107 72 53 30 30 18 358 1 326 323 321 308 293 301 289 298 297 291 284
75 112 104 70 69 60 53 62 72 78 83 105 121 167 182 190 205 247 94 174 157 158 135 121 107 76 34 11 347 325 321 327 295 300 309 309 292 291 282 307 293 341 324
84 79 67 74 69 68 56 68 82 95 135 205 256 263 264 258 260 193 176 185 154 136 130 103 36 37 314 291 269 277 290 306 305 310 317 310 305 307 314 294 264 240 236
89 82 80 84 92 68 40 23 9 24 283 318 304 292 283 290 274 71 137 193 166 263 147 115 249 287 299 271 277 285 302 331 335 343 350 314 313 314 310 305 299 281 246
93 91 94 92 79 49 52 43 28 29 4 325 308 303 312 300 225 185 153 221 232 256 62 315 279 297 271 278 241 185 140 137 358 344 337 319 327 310 298 290 292 291 296
93 87 90 65 53 53 47 34 32 26 12 4 354 333 316 295 259 241 208 76 347 8 316 257 254 254 248 246 211 131 96 43 21 324 308 300 310 305 298 289 285 280 288
73 45 35 35 79 63 42 38 29 22 9 0 352 335 318 306 313 63 10 33 356 286 271 263 258 268 255 195 157 123 77 359 309 291 291 290 295 293 289 289 286 282 262
41 25 10 50 119 48 48 38 26 16 5 358 340 344 18 82 192 223 213 207 258 276 239 265 284 307 225 174 147 134 232 266 278 283 287 296 307 310 308 316 319 333 338
21 305 328 111 58 88 90 38 15 357 353 348 353 326 307 278 263 261 255 285 279 279 278 289 291 281 129 155 202 209 249 281 291 295 288 287 309 303 316 310 310 303 292
236 268 228 158 137 140 126 23 312 299 313 299 287 315 293 290 285 281 283 272 280 306 281 295 53 66 180 215 238 245 284 302 287 287 289 300 306 306 294 296 297 297 291
255 294 200 148 161 187 220 254 257 269 286 300 315 309 308 297 294 312 338 323 299 273 270 84 82 68 283 259 306 349 311 303 294 300 298 301 303 301 305 297 298 303 284
258 213 228 189 189 221 237 227 285 316 311 297 296 289 288 297 280 273 263 264 276 294 109 108 51 30 27 43 7 12 348 320 314 308 309 308 313 305 314 320 289 294 294
243 226 225 185 223 264 301 321 298 303 285 278 286 287 287 279 276 268 271 271 268 125 108 81 74 91 49 36 17 2 266 317 312 316 316 318 325 320 316 315 279 279 287
360 32 43 349 286 322 343 304 287 285 282 301 306 300 302 301 290 293 303 355 125 112 96 101 109 90 54 19 6 350 311 298 327 320 322 321 324 343 335 329 301 290 287
43 48 12 337 334 3 309 284 278 263 275 307 313 319 324 325 322 308 350 125 123 123 139 117 65 21 359 28 1 355 347 341 314 314 315 310 345 347 346 353 353 349 325
28 7 6 350 343 318 298 288 269 251 264 281 283 311 326 328 334 2 101 106 127 137 174 147 168 259 339 347 344 335 339 335 317 315 343 353 353 349 345 357 0 352 350
19 347 354 329 308 302 309 302 300 281 261 258 270 321 340 336 344 40 92 114 136 170 188 188 191 241 312 309 305 295 308 311 334 332 324 328 335 328 342 348 346 345 336
338 325 328 313 306 312 315 306 303 300 257 244 253 287 303 345 16 82 110 150 228 199 197 212 185 155 301 265 317 350 356 341 350 341 342 349 352 355 355 352 349 349 342
343 340 313 304 304 327 322 314 310 24 346 299 282 251 289 319 149 142 51 287 261 251 235 186 167 237 228 274 317 353 8 3 16 4 336 332 335 354 350 351 345 349 345